#timestamp,LO_Frequency,Hit,StdDev 
1616342415.2,286047000.0,N
1616342435.1,286047000.3,N
1616342436.0,286047000.3,N
1616342455.8,286047002.4,Y
1616342475.6,286047000.4,P
1616342495.5,286047000.1,N
1616342515.3,286047002.0,P
1616342535.2,286047002.0,N
1616342555.9,286047000.6,N
1616342575.7,286047002.1,N
1616342595.6,286047000.0,N
1616342615.4,286046999.9,N
1616342635.2,286047000.4,N
1616342655.1,286047001.1,N
1616342656.0,286047001.1,N
1616342675.8,286047000.4,N
1616342695.7,286047000.5,N
1616342715.5,286046998.3,N
1616342735.3,286046998.7,N
1616342755.2,286047000.9,N
1616342775.9,286047002.4,N
1616342795.7,286047002.4,N
1616342815.6,286047000.4,N
1616342835.4,286047001.2,N
1616342855.3,286046999.6,N
1616342875.1,286046996.6,Y
1616342876.0,286046996.6,P
1616342895.8,286046997.8,N
1616342915.7,286046997.8,N
1616342935.5,286046997.3,N
1616342955.3,286046997.9,N
1616342975.2,286046998.0,N
1616342995.0,286046995.3,Y
1616342995.9,286046995.3,P
1616343015.8,286046998.3,N
1616343035.6,286046998.7,N
1616343055.4,286046999.6,N
1616343075.3,286046998.3,N
1616343095.1,286046998.8,N
1616343115.9,286046999.3,N
1616343135.7,286046999.0,N
1616343155.5,286046998.1,N
1616343175.4,286047002.1,N
1616343195.2,286046999.7,N
1616343215.0,286047000.4,N
1616343215.9,286047000.4,N
1616343235.8,286047002.8,N
1616343255.6,286047002.2,N
1616343275.5,286046999.7,N
1616343295.3,286047004.2,N
1616343315.1,286047003.0,N
1616343335.9,286047001.3,N
1616343355.7,286047001.9,N
1616343375.5,286047002.1,N
1616343395.4,286047002.6,N
1616343415.2,286047001.8,N
1616343435.0,286047004.3,N
1616343435.9,286047004.3,N
1616343455.8,286047001.7,N
1616343475.6,286047002.0,N
1616343495.5,286047006.0,N
1616343515.3,286047006.4,N
1616343535.1,286047006.6,N
1616343555.9,286047009.0,Y
1616343575.7,286047007.4,P
1616343595.5,286047010.6,P
1616343615.4,286047011.7,P
1616343635.2,286047010.3,N
1616343655.1,286047011.4,Y
1616343656.0,286047011.4,P
1616343675.8,286047004.2,N
1616343695.6,286047004.3,N
1616343715.5,286047001.8,N
1616343735.3,286046998.1,N
1616343755.1,286047000.9,N
1616343775.9,286047001.1,N
1616343795.7,286047000.3,N
1616343815.6,286047002.0,N
1616343835.4,286046998.2,N
1616343855.2,286047000.6,N
1616343875.1,286047002.3,N
1616343876.0,286047002.3,N
1616343895.8,286047000.1,N
1616343915.6,286046999.8,N
1616343935.5,286047000.4,N
1616343955.3,286046996.5,N
1616343975.2,286046998.9,N
1616343995.9,286047000.7,N
1616344015.7,286046998.4,N
1616344035.6,286046999.6,N
1616344055.4,286046999.5,N
1616344075.2,286046999.0,N
1616344095.1,286046996.7,N
1616344096.0,286046996.7,N
1616344115.8,286047000.9,N
1616344135.7,286046998.7,N
1616344155.5,286046998.3,N
1616344175.3,286046997.5,N
1616344195.2,286046997.8,N
1616344215.0,286046999.1,N
1616344215.9,286046999.1,N
1616344235.7,286046997.3,N
1616344255.6,286046997.3,N
1616344275.4,286046999.6,N
1616344295.3,286046999.2,N
1616344315.1,286046997.8,N
1616344316.0,286046997.8,N
1616344335.8,286046999.5,N
1616344355.7,286046997.0,N
1616344375.5,286046997.8,N
1616344395.3,286047000.7,N
1616344415.2,286046997.8,N
1616344435.0,286046998.0,N
1616344435.9,286046998.0,N
1616344455.8,286047001.2,N
1616344475.6,286046998.2,N
1616344495.4,286047003.4,N
1616344515.3,286047005.9,Y
1616344535.1,286047006.7,P
1616344555.9,286047002.9,N
1616344575.7,286047001.4,N
1616344595.5,286047000.3,N
1616344615.4,286047002.1,N
1616344635.2,286047000.8,N
1616344655.0,286046997.3,N
1616344655.9,286046997.3,N
1616344675.8,286046997.7,N
1616344695.6,286046995.4,N
1616344715.5,286046997.7,N
1616344735.3,286046999.0,N
1616344755.1,286047001.1,N
1616344775.9,286046999.9,N
1616344795.7,286047000.3,N
1616344815.5,286047001.1,N
1616344835.4,286046999.2,N
1616344855.2,286046998.6,N
1616344875.1,286047001.1,N
1616344876.0,286047001.1,N
1616344895.8,286046998.2,N
1616344915.6,286046998.2,N
1616344935.5,286047000.5,N
1616344955.3,286047000.7,N
1616344975.1,286046998.8,N
1616344995.9,286046999.0,N
1616345015.7,286046998.6,N
1616345035.6,286047000.8,N
1616345055.4,286047001.1,N
1616345075.2,286047001.0,N
1616345095.1,286046999.7,N
1616345096.0,286046999.7,N
1616345115.8,286047002.3,N
1616345135.6,286047001.6,N
1616345155.5,286047000.3,N
1616345175.3,286047002.6,N
1616345195.2,286046999.7,N
1616345215.9,286047000.5,N
1616345235.7,286046999.9,N
1616345255.6,286047001.0,N
1616345275.4,286046998.6,N
1616345295.2,286046999.5,N
1616345315.1,286046998.9,N
1616345316.0,286046998.9,N
1616345335.8,286046996.5,N
1616345355.7,286046998.7,N
1616345375.5,286046997.8,N
1616345395.3,286046999.1,N
1616345415.2,286046999.3,N
1616345435.9,286046996.9,N
1616345455.7,286046998.5,N
1616345475.6,286047002.2,N
1616345495.4,286047000.1,N
1616345515.2,286047002.7,N
1616345535.1,286047002.8,N
1616345536.0,286047002.8,N
1616345555.8,286046998.1,N
1616345575.7,286046997.3,N
1616345595.5,286047001.1,N
1616345615.3,286047001.1,N
1616345635.2,286046999.0,N
1616345655.0,286047001.0,N
1616345655.9,286047001.0,N
1616345675.8,286047000.5,N
1616345695.6,286046999.9,N
1616345715.4,286047003.9,N
1616345735.3,286047001.6,N
1616345755.1,286047002.5,N
1616345775.8,286047001.9,N
1616345795.7,286047001.0,N
1616345815.5,286047002.8,N
1616345835.3,286047000.3,N
1616345855.2,286046998.3,N
1616345875.0,286046999.2,N
1616345875.9,286046999.2,N
1616345895.8,286046999.1,N
1616345915.6,286046997.7,N
1616345935.4,286046997.4,N
1616345955.3,286046997.5,N
1616345975.1,286046997.6,N
1616345995.9,286046997.9,N
